Duluth, MN

2:50 PM CST on January 18, 2017 (GMT -0600)
Duluth International

Weather History for KDLH - June, 2013

Change the Weather History Date:

Thursday, June 20, 2013

  Actual Average Record
Temperature  
Mean Temperature 62 °F 61 °F  
Max Temperature 69 °F 72 °F 88 °F (1995)
Min Temperature 54 °F 51 °F 31 °F (1992)
Degree Days  
Heating Degree Days 3 5  
Month to date heating degree days 136 140  
Since 1 June heating degree days 136 140  
Since 1 July heating degree days 9356 9405  
Cooling Degree Days 0 1  
Month to date cooling degree days 10 11  
Year to date cooling degree days 11 15  
Since 1 June cooling degree days 10 11  
Growing Degree Days 12 (Base 50)    
Moisture  
Dew Point 58 °F    
Average Humidity 78    
Maximum Humidity 93    
Minimum Humidity 63    
Precipitation  
Precipitation 0.31 in 0.15 in 3.11 in (2012)
Month to date precipitation 1.68 2.69  
Year to date precipitation 15.02 11.61  
Snow  
Snow 0.00 in 0.00 in 0.00 in (2002)
Month to date snowfall 0.0 0.0  
Since 1 June snowfall 0.0 0.0  
Since 1 July snowfall 129.4 86.1  
Snow Depth 0.00 in    
Sea Level Pressure  
Sea Level Pressure 30.03 in    
Wind  
Wind Speed 10 mph (East)    
Max Wind Speed 18 mph    
Max Gust Speed 24 mph    
Visibility 6 miles    
Events Fog , Rain , Thunderstorm    
T = Trace of Precipitation, MM = Missing Value Source: NWS Daily Summary

Daily Weather History Graph

Daily Weather History Graph

Search for Another Location

Airport or City:

Trip Planner

Search our weather history database for the weather conditions in past years. The results will help you decide how hot, cold, wet, or windy it might be!

Date:

Astronomy

Jun. 20, 2013 Rise Set
Actual Time 5:14 AM CDT 9:06 PM CDT
Civil Twilight 4:34 AM CDT 9:46 PM CDT
Nautical Twilight 3:40 AM CDT 10:40 PM CDT
Astronomical Twilight 2:19 AM CDT 12:01 AM CDT
Moon 6:02 PM CDT (6/20) 2:50 AM CDT (6/20)
Length of Visible Light 17h 11m
Length of Day
15h 52m
Waxing Gibbous, 89% of the Moon is Illuminated
Jun 20
Waxing Gibbous
Jun 23
Full
Jun 29
Last Quarter
Jul 8
New
Jul 15
First Quarter

Hourly Weather History & Observations

Time (CDT) Temp. Dew Point Humidity Pressure Visibility Wind Dir Wind Speed Gust Speed Precip Events Conditions
12:55 AM 68.0 °F 55.9 °F 65% 29.98 in 10.0 mi SSW 5.8 mph - N/A   Partly Cloudy
1:55 AM 66.9 °F 57.0 °F 70% 29.98 in 10.0 mi South 5.8 mph - N/A   Partly Cloudy
2:55 AM 66.9 °F 55.9 °F 68% 29.99 in 10.0 mi SSW 5.8 mph - N/A   Partly Cloudy
3:55 AM 66.0 °F 55.9 °F 70% 29.98 in 10.0 mi South 5.8 mph - N/A   Scattered Clouds
4:55 AM 63.0 °F 55.0 °F 75% 29.99 in 10.0 mi ESE 9.2 mph - N/A   Scattered Clouds
5:55 AM 59.0 °F 51.1 °F 75% 29.99 in 10.0 mi East 6.9 mph - N/A   Mostly Cloudy
6:00 AM 59.0 °F 51.8 °F 77% 30.00 in 10.0 mi East 6.9 mph - N/A Thunderstorm Thunderstorm
6:23 AM 59.0 °F 51.8 °F 77% 30.00 in 10.0 mi East 5.8 mph - N/A   Mostly Cloudy
6:55 AM 60.1 °F 52.0 °F 75% 30.01 in 10.0 mi East 6.9 mph - N/A   Scattered Clouds
7:55 AM 64.0 °F 55.0 °F 73% 30.01 in 10.0 mi ESE 8.1 mph - N/A   Scattered Clouds
8:55 AM 64.0 °F 55.0 °F 73% 30.04 in 10.0 mi East 9.2 mph - N/A   Scattered Clouds
9:55 AM 64.9 °F 55.9 °F 73% 30.03 in 10.0 mi East 8.1 mph - 0.00 in   Scattered Clouds
10:49 AM 66.2 °F 57.2 °F 73% 30.06 in 10.0 mi ENE 3.5 mph - N/A   Overcast
10:55 AM 66.0 °F 57.0 °F 73% 30.05 in 10.0 mi ENE 4.6 mph - N/A   Overcast
11:55 AM 66.0 °F 57.9 °F 75% 30.06 in 10.0 mi NE 9.2 mph - 0.00 in Rain Light Rain
12:55 PM 66.9 °F 60.1 °F 79% 30.05 in 10.0 mi East 9.2 mph - 0.00 in   Mostly Cloudy
1:05 PM 68.0 °F 60.8 °F 78% 30.05 in 10.0 mi East 9.2 mph - N/A   Mostly Cloudy
1:55 PM 68.0 °F 60.1 °F 76% 30.06 in 10.0 mi East 9.2 mph - 0.00 in   Overcast
2:55 PM 66.0 °F 59.0 °F 78% 30.04 in 10.0 mi East 15.0 mph - 0.00 in Rain Light Rain
3:31 PM 66.2 °F 60.8 °F 83% 30.05 in 10.0 mi East 13.8 mph - 0.01 in   Overcast
3:43 PM 66.2 °F 60.8 °F 83% 30.05 in 10.0 mi East 11.5 mph - 0.01 in   Overcast
3:55 PM 64.9 °F 60.1 °F 84% 30.07 in 5.0 mi East 10.4 mph 21.9 mph 0.01 in Rain Light Rain
4:07 PM 64.4 °F 60.8 °F 88% 30.06 in 3.0 mi ENE 9.2 mph - 0.09 in Rain , Thunderstorm Thunderstorms and Rain
4:33 PM 64.4 °F 60.8 °F 88% 30.06 in 4.0 mi ESE 9.2 mph - 0.16 in Rain Light Rain
4:55 PM 64.9 °F 60.1 °F 84% 30.06 in 4.0 mi East 15.0 mph - 0.20 in Rain Light Rain
5:55 PM 64.0 °F 59.0 °F 84% 30.04 in 5.0 mi ESE 15.0 mph - 0.06 in Rain Rain
6:47 PM 64.4 °F 60.8 °F 88% 30.03 in 0.8 mi East 13.8 mph - 0.01 in   Overcast
6:55 PM 64.0 °F 60.1 °F 87% 30.04 in 0.8 mi ESE 11.5 mph - 0.01 in   Overcast
7:17 PM 64.4 °F 60.8 °F 88% 30.03 in 0.2 mi ESE 11.5 mph 19.6 mph N/A Fog Fog
7:55 PM 63.0 °F 59.0 °F 87% 30.04 in 0.2 mi East 11.5 mph - N/A Fog Fog
8:09 PM 62.6 °F 59.0 °F 88% 30.04 in 0.1 mi East 11.5 mph - N/A Fog Fog
8:18 PM 62.6 °F 59.0 °F 88% 30.05 in 0.1 mi East 10.4 mph - N/A Fog Fog
8:55 PM 62.1 °F 57.9 °F 86% 30.05 in 0.2 mi East 10.4 mph - 0.00 in Fog , Rain Light Rain
9:18 PM 62.6 °F 57.2 °F 82% 30.05 in 0.5 mi East 8.1 mph - 0.03 in Fog , Rain Rain
9:28 PM 62.6 °F 57.2 °F 82% 30.05 in 0.5 mi East 10.4 mph - 0.03 in Fog , Rain Light Rain
9:55 PM 62.1 °F 57.9 °F 86% 30.04 in 0.5 mi East 8.1 mph - 0.03 in Fog Fog
10:14 PM 62.6 °F 57.2 °F 82% 30.03 in 0.2 mi East 9.2 mph - N/A Fog Fog
10:55 PM 62.1 °F 59.0 °F 90% 30.04 in 0.1 mi East 11.5 mph - N/A Fog Fog
11:55 PM 57.9 °F 55.0 °F 90% 30.01 in 0.1 mi ESE 11.5 mph - N/A Fog Fog
11:58 PM 57.2 °F 55.4 °F 94% 30.00 in 0.1 mi ESE 11.5 mph - N/A Fog , Thunderstorm Unknown